Burlington, WA
on Thursday, January 24, 2013

Thursday
Previous Day Next Day
Daily Summary
 ActualAverage (KBLI)Record (KBLI)
Temperature
Mean Temperature °F 40°F  
Max Temperature 46°F 47°F 55°F (1953)
Min Temperature 37°F 33°F 4°F (1950)
Degree Days
Heating Degree Days 24 25  
Month to date heating degree days 623  
Cooling Degree Days 0 0  
Month to date cooling degree days 0  
Year to date cooling degree days 0  
Moisture
Dew Point 40°F   
Average Humidity 92    
Maximum Humidity 100    
Minimum Humidity 66    
Precipitation
Precipitation 0.05 in 0.15 in 2.46 in (1984)
Month to date precipitation 3.69  
Year to date precipitation 3.69  
Wind
Wind Speed 5 mph   
Max Wind Speed 17 mph   
Max Gust Speed 30 mph   
Visibility 9 miles   
Events     

Key: T is trace of precipitation, MM is missing value
Source: NWS Daily Summary
Time(PST)TemperatureDew PointHumidity Pressure Visibility Wind DirectionWind SpeedGust SpeedPrecipitationEvents Conditions
12:15 AM 39.2°F 39.2°F 100% 30.14 in 8.0 miles South 5.8 mph - 0.00 in   Mostly Cloudy
12:35 AM 39.2°F 39.2°F 100% 30.14 in 8.0 miles WSW 3.5 mph - 0.00 in   Partly Cloudy
12:55 AM 39.2°F 39.2°F 100% 30.15 in 7.0 miles NE 3.5 mph - 0.00 in   Scattered Clouds
1:15 AM 39.2°F 39.2°F 100% 30.16 in 9.0 miles Calm Calm - 0.00 in   Mostly Cloudy
1:35 AM 39.2°F 39.2°F 100% 30.17 in 1.8 miles Calm Calm - 0.00 in   Overcast
1:55 AM 37.4°F 37.4°F 100% 30.17 in 2.5 miles SW 5.8 mph - 0.00 in   Mostly Cloudy
2:15 AM 39.2°F 39.2°F 100% 30.18 in 4.0 miles SW 5.8 mph - 0.00 in   Mostly Cloudy
2:35 AM 37.4°F 37.4°F 100% 30.19 in 8.0 miles Calm Calm - 0.00 in   Clear
2:55 AM 39.2°F 39.2°F 100% 30.19 in 9.0 miles Calm Calm - 0.00 in   Mostly Cloudy
3:15 AM 37.4°F 37.4°F 100% 30.20 in 7.0 miles Calm Calm - 0.00 in   Overcast
3:35 AM 37.4°F 37.4°F 100% 30.20 in 1.0 miles SW 3.5 mph - 0.00 in   Overcast
3:55 AM 37.4°F 37.4°F 100% 30.20 in 8.0 miles Calm Calm - 0.00 in   Overcast
4:15 AM 37.4°F 37.4°F 100% 30.20 in 7.0 miles Calm Calm - 0.00 in   Overcast
4:35 AM 39.2°F 39.2°F 100% 30.20 in 8.0 miles East 3.5 mph - 0.00 in   Overcast
4:55 AM 39.2°F 39.2°F 100% 30.19 in 10.0 miles Calm Calm - 0.00 in   Overcast
5:15 AM 39.2°F 39.2°F 100% 30.20 in 8.0 miles Calm Calm - 0.00 in   Overcast
5:35 AM 37.4°F 37.4°F 100% 30.21 in 3.0 miles Calm Calm - 0.00 in   Overcast
5:55 AM 37.4°F 37.4°F 100% 30.22 in 8.0 miles Calm Calm - 0.00 in   Overcast
6:15 AM 39.2°F 39.2°F 100% 30.21 in 9.0 miles ESE 3.5 mph - 0.00 in   Overcast
6:35 AM 39.2°F 39.2°F 100% 30.22 in 10.0 miles SE 3.5 mph - 0.00 in   Overcast
6:55 AM 39.2°F 39.2°F 100% 30.21 in 9.0 miles ESE 4.6 mph - 0.00 in   Overcast
7:15 AM 39.2°F 39.2°F 100% 30.21 in 10.0 miles ESE 4.6 mph - 0.00 in   Overcast
7:35 AM 39.2°F 39.2°F 100% 30.20 in 10.0 miles ESE 4.6 mph - 0.00 in   Overcast
7:55 AM 39.2°F 39.2°F 100% 30.20 in 10.0 miles ESE 4.6 mph - 0.00 in   Overcast
8:15 AM 37.4°F 37.4°F 100% 30.19 in 10.0 miles East 5.8 mph - 0.00 in   Scattered Clouds
8:35 AM 39.2°F 39.2°F 100% 30.18 in 10.0 miles East 3.5 mph - 0.00 in   Clear
8:55 AM 39.2°F 39.2°F 100% 30.18 in 10.0 miles East 5.8 mph - 0.00 in   Clear
9:15 AM 39.2°F 39.2°F 100% 30.18 in 10.0 miles East 5.8 mph - 0.00 in   Clear
9:35 AM 41.0°F 41.0°F 100% 30.19 in 10.0 miles East 6.9 mph - 0.00 in   Clear
9:55 AM 42.8°F 41.0°F 93% 30.19 in 10.0 miles East 9.2 mph - 0.00 in   Clear
10:15 AM 44.6°F 41.0°F 87% 30.18 in 10.0 miles ESE 9.2 mph - 0.00 in   Clear
10:35 AM 44.6°F 41.0°F 87% 30.18 in 10.0 miles ESE 9.2 mph - 0.00 in   Clear
10:55 AM 44.6°F 39.2°F 81% 30.18 in 10.0 miles SE 5.8 mph - 0.00 in   Clear
11:15 AM 44.6°F 39.2°F 81% 30.18 in 10.0 miles ESE 8.1 mph - 0.00 in   Clear
11:35 AM 44.6°F 39.2°F 81% 30.17 in 10.0 miles ESE 8.1 mph - 0.00 in   Partly Cloudy
11:55 AM 44.6°F 39.2°F 81% 30.16 in 10.0 miles ESE 8.1 mph - 0.00 in   Partly Cloudy
12:15 PM 44.6°F 42.8°F 93% 30.15 in 10.0 miles East 8.1 mph - 0.00 in   Scattered Clouds
12:35 PM 44.6°F 42.8°F 93% 30.12 in 10.0 miles East 10.4 mph - 0.00 in   Partly Cloudy
12:55 PM 46.4°F 39.2°F 76% 30.11 in 10.0 miles ESE 9.2 mph - 0.00 in   Partly Cloudy
1:15 PM 46.4°F 37.4°F 71% 30.11 in 10.0 miles SE 6.9 mph - 0.00 in   Partly Cloudy
1:35 PM 46.4°F 37.4°F 71% 30.11 in 10.0 miles SE 5.8 mph - 0.00 in   Partly Cloudy
1:55 PM 46.4°F 35.6°F 66% 30.09 in 10.0 miles SSE 6.9 mph - 0.00 in   Partly Cloudy
2:15 PM 44.6°F 35.6°F 71% 30.09 in 10.0 miles SE 5.8 mph - 0.00 in   Clear
2:35 PM 44.6°F 37.4°F 76% 30.08 in 10.0 miles Calm Calm - 0.00 in   Clear
2:55 PM 44.6°F 37.4°F 76% 30.08 in 10.0 miles SE 5.8 mph - 0.00 in   Clear
3:15 PM 44.6°F 39.2°F 81% 30.10 in 10.0 miles SW 4.6 mph - 0.00 in   Partly Cloudy
3:35 PM 44.6°F 39.2°F 81% 30.09 in 10.0 miles Calm Calm - 0.00 in   Scattered Clouds
3:55 PM 42.8°F 41.0°F 93% 30.09 in 10.0 miles Calm Calm - 0.00 in   Scattered Clouds
4:15 PM 44.6°F 39.2°F 81% 30.07 in 10.0 miles ENE 5.8 mph - 0.00 in   Mostly Cloudy
4:35 PM 44.6°F 39.2°F 81% 30.07 in 10.0 miles ENE 9.2 mph - 0.00 in   Mostly Cloudy
4:55 PM 44.6°F 39.2°F 81% 30.09 in 9.0 miles East 11.5 mph 19.6 mph 0.00 in   Mostly Cloudy
5:15 PM 46.4°F 37.4°F 71% 30.10 in 5.0 miles SSE 16.1 mph 29.9 mph 0.00 in   Overcast
5:35 PM 42.8°F 39.2°F 87% 30.09 in 6.0 miles SSE 10.4 mph 17.3 mph 0.01 in   Mostly Cloudy
5:55 PM 42.8°F 41.0°F 93% 30.10 in 5.0 miles SE 12.7 mph 17.3 mph 0.03 in   Overcast
6:15 PM 42.8°F 42.8°F 100% 30.08 in 10.0 miles ESE 12.7 mph 19.6 mph 0.00 in   Overcast
6:35 PM 42.8°F 42.8°F 100% 30.08 in 10.0 miles ESE 13.8 mph 20.7 mph 0.01 in   Overcast
7:15 PM 41.0°F 41.0°F 100% 30.07 in 10.0 miles ESE 15.0 mph - 0.00 in   Overcast
7:35 PM 41.0°F 41.0°F 100% 30.06 in 10.0 miles ESE 15.0 mph 23.0 mph 0.01 in   Overcast
7:55 PM 41.0°F 41.0°F 100% 30.06 in 10.0 miles ESE 17.3 mph 25.3 mph 0.01 in   Overcast
8:15 PM 42.8°F 41.0°F 93% 30.06 in 10.0 miles ESE 16.1 mph 21.9 mph 0.00 in   Overcast
8:35 PM 42.8°F 41.0°F 93% 30.05 in 10.0 miles ESE 16.1 mph 24.2 mph 0.00 in   Overcast
8:55 PM 42.8°F 41.0°F 93% 30.05 in 10.0 miles ESE 15.0 mph 19.6 mph 0.00 in   Overcast
9:15 PM 42.8°F 42.8°F 100% 30.05 in 10.0 miles ESE 13.8 mph 19.6 mph 0.00 in   Overcast
9:35 PM 42.8°F 42.8°F 100% 30.05 in 10.0 miles ESE 13.8 mph - 0.00 in   Overcast
9:55 PM 44.6°F 42.8°F 93% 30.04 in 10.0 miles ESE 15.0 mph 19.6 mph 0.00 in   Overcast
10:15 PM 44.6°F 42.8°F 93% 30.03 in 10.0 miles ESE 15.0 mph - 0.00 in   Overcast
10:35 PM 44.6°F 42.8°F 93% 30.03 in 10.0 miles ESE 10.4 mph - 0.00 in   Overcast
10:55 PM 46.4°F 42.8°F 87% 30.03 in 10.0 miles ESE 11.5 mph - 0.00 in   Overcast
11:15 PM 46.4°F 42.8°F 87% 30.03 in 10.0 miles SE 9.2 mph 18.4 mph 0.00 in   Overcast
11:55 PM 46.4°F 44.6°F 93% 30.04 in 10.0 miles SSE 11.5 mph 21.9 mph 0.00 in   Overcast
Moon Phase
Jan. 24 Jan. 26 Feb. 03 Feb. 10 Feb. 17
Sunrise:07:47 AM (PST) Moon Rise:03:00 PM (PST)1/24
Sunset:04:56 PM (PST) Moon Set:05:52 AM (PST)1/24

Copyright © 2014 The Weather Underground, Inc.